EZIE-A

导读

EZIE-A是美国NASA于2025年3月15日(PDT时间)成功发射部署的EZIE任务卫星之一,全称Electrojet Zeeman Imaging Explorer,发射场地为加利福尼亚州范登堡太空军基地。该卫星属于太阳物理学探测任务,旨在对地球电离层喷流进行成像观测,研究太空天气与地磁活动相关物理过程。入轨后,卫星团队将在十日内向地面传回健康信号,验证其工作状态。

Basic Information
目录编号:
63247
目录名称:
EZIE-A
国际标识:
2025-052AP
轨道中心:
EARTH
卫星名称:
EZIE-A
卫星全名:
EZIE-A
卫星状态:
在轨 (已飞行539 天)
发射日期:
2025-03-15 UTC
国别 :
美国 (US)
星等 :
--
Orbit Information
数据来源 国际轨道数据
星历时间: 2026-09-05T11:45:58+0800
4小时前
查看轨道信息
半长轴: 6951.709km
偏心率: 0.0002071
轨道倾角: 97.677°
近地点辐角 310.855°
升交点赤经 139.026°
平近点角 49.249°
近地点: 572.132km
远地点: 575.012km
周期: 96.138分钟
每日圈数: 14.978399
Detailed Information
使用方式:
暂无
2D Orbit Map
3D Orbit Map
Orbit Altitude Analysis Chart
Orbit Inclination Analysis Chart
Orbit Comprehensive Analysis Chart
View Comprehensive Chart
Conjunction Data List
Event ID Objects TCA Miss Dist (km) Collision Risk Probability Collision Risk Index (CRI) Action
CDM_260906-043206-054906-324722
EZIE-A (63247)
2026-09-06T
04:32:45+0000
0.718 km
远距离
8.007392E-5 中风险 0.73
CDM_260906-060806-054906-324722
EZIE-A (63247)
2026-09-06T
06:08:56+0000
1.895 km
极远距离
3.329066E-6 低风险 0.45
CDM_260906-025606-054906-324722
EZIE-A (63247)
2026-09-06T
02:56:34+0000
2.456 km
极远距离
1.828462E-6 低风险 0.4
CDM_260905-211906-054906-324722
EZIE-A (63247)
2026-09-05T
21:19:55+0000
2.674 km
极远距离
1.580058E-6 低风险 0.39
CDM_260905-023905-592806-324721
EZIE-A (63247)
2026-09-05T
02:39:50+0000
2.307 km
极远距离
1.562415E-6 低风险 0.39
CDM_260905-225606-054906-324722
EZIE-A (63247)
2026-09-05T
22:56:06+0000
2.888 km
极远距离
1.415017E-6 低风险 0.38
CDM_260906-000603-796806-324722
EZIE-A (63247)
2026-09-06T
00:06:12+0000
2.601 km
极远距离
1.113276E-6 低风险 0.36
CDM_260907-005205-577906-324722
EZIE-A (63247)
2026-09-07T
00:52:46+0000
2.568 km
极远距离
9.544872E-7 极低风险 0.35